Weather History for Phoenix Deer Valley, AZ

Change the Weather History Date:

Thursday, July 25, 2013

  Actual Average Record
Temperature  
Mean Temperature 90 °F -  
Max Temperature 99 °F 101 °F 111 °F (2000)
Min Temperature 82 °F 81 °F 75 °F (2006)
Cooling Degree Days 26    
Growing Degree Days 40 (Base 50)    
Moisture  
Dew Point 66 °F    
Average Humidity 45    
Maximum Humidity 65    
Minimum Humidity 30    
Precipitation  
Precipitation 0.00 in - - ()
Sea Level Pressure  
Sea Level Pressure 29.84 in    
Wind  
Wind Speed 6 mph (SSE)    
Max Wind Speed 14 mph    
Max Gust Speed -    
Visibility 10 miles    
Events      
Averages and records for this station are not official NWS values.
T = Trace of Precipitation, MM = Missing Value Source: NWS Daily Summary

Daily Weather History Graph

Daily Weather History Graph

Search for Another Location

Airport:

Trip Planner

Search our weather history database for the weather conditions in past years. The results will help you decide how hot, cold, wet, or windy it might be!

Date:

Astronomy

Jul. 25, 2013 Rise Set
Actual Time 5:35 AM MST 7:33 PM MST
Civil Twilight 5:07 AM MST 8:01 PM MST
Nautical Twilight 4:34 AM MST 8:34 PM MST
Astronomical Twilight 3:58 AM MST 9:10 PM MST
Moon 9:31 PM MST (7/25) 8:56 AM MST (7/25)
Length of Visible Light 14h 53m
Length of Day
13h 57m
Waning Gibbous, 87% of the Moon is Illuminated
Jul 25
Waning Gibbous
Jul 29
Last Quarter
Aug 6
New
Aug 14
First Quarter
Aug 20
Full

Hourly Weather History & Observations

Time (MST) Temp. Heat Index Dew Point Humidity Pressure Visibility Wind Dir Wind Speed Gust Speed Precip Events Conditions
12:53 AM 89.1 °F 91.3 °F 66.0 °F 46% 29.76 in 10.0 mi WSW 3.5 mph - N/A   Clear
1:53 AM 88.0 °F 89.3 °F 64.0 °F 45% 29.77 in 10.0 mi SSE 3.5 mph - N/A   Clear
2:53 AM 87.1 °F 89.2 °F 66.0 °F 49% 29.78 in 10.0 mi SE 10.4 mph - N/A   Overcast
3:53 AM 87.1 °F 89.2 °F 66.0 °F 49% 29.79 in 10.0 mi SE 8.1 mph - N/A   Overcast
4:53 AM 86.0 °F 88.2 °F 66.0 °F 51% 29.81 in 10.0 mi ESE 6.9 mph - N/A   Partly Cloudy
5:53 AM 86.0 °F 88.2 °F 66.0 °F 51% 29.85 in 10.0 mi East 8.1 mph - N/A   Overcast
6:53 AM 84.0 °F 86.3 °F 66.0 °F 55% 29.85 in 10.0 mi SE 5.8 mph - N/A   Clear
7:53 AM 82.0 °F 85.5 °F 69.1 °F 65% 29.87 in 10.0 mi SSW 9.2 mph - N/A   Clear
8:53 AM 82.9 °F 85.8 °F 68.0 °F 60% 29.90 in 10.0 mi East 8.1 mph - N/A   Clear
9:53 AM 87.1 °F 89.9 °F 66.9 °F 51% 29.91 in 10.0 mi ESE 6.9 mph - N/A   Clear
10:53 AM 89.1 °F 91.0 °F 64.9 °F 45% 29.90 in 10.0 mi SW 4.6 mph - N/A   Clear
11:53 AM 91.9 °F 94.1 °F 64.9 °F 41% 29.89 in 10.0 mi Variable 4.6 mph - N/A   Clear
12:53 PM 93.0 °F 94.6 °F 64.0 °F 38% 29.87 in 10.0 mi Calm Calm - N/A   Clear
1:53 PM 95.0 °F 96.0 °F 63.0 °F 34% 29.84 in 10.0 mi West 5.8 mph - N/A   Clear
2:53 PM 97.0 °F 98.3 °F 63.0 °F 32% 29.83 in 10.0 mi South 8.1 mph - N/A   Clear
3:53 PM 99.0 °F 100.5 °F 62.1 °F 30% 29.81 in 10.0 mi WSW 8.1 mph - N/A   Clear
4:53 PM 98.1 °F 99.1 °F 62.1 °F 30% 29.81 in 10.0 mi Variable 3.5 mph - N/A   Clear
5:53 PM 97.0 °F 97.8 °F 62.1 °F 31% 29.82 in 10.0 mi SSW 5.8 mph - N/A   Clear
6:53 PM 97.0 °F 97.4 °F 61.0 °F 30% 29.82 in 10.0 mi SW 6.9 mph - N/A   Clear
7:53 PM 91.9 °F 96.9 °F 69.1 °F 47% 29.83 in 10.0 mi SE 13.8 mph - N/A   Clear
8:53 PM 91.0 °F 94.3 °F 66.9 °F 45% 29.86 in 10.0 mi ESE 8.1 mph - N/A   Clear
9:53 PM 89.1 °F 92.9 °F 68.0 °F 50% 29.88 in 10.0 mi SE 6.9 mph - N/A   Clear
10:53 PM 89.1 °F 92.9 °F 68.0 °F 50% 29.88 in 10.0 mi ESE 8.1 mph - N/A   Clear
11:53 PM 88.0 °F 92.1 °F 69.1 °F 53% 29.88 in 10.0 mi ESE 4.6 mph - N/A   Clear